Weather History for Kenai, AK

Change the Weather History Date:

Thursday, December 8, 2011

  Actual Average Record
Temperature  
Mean Temperature 29 °F -  
Max Temperature 30 °F 22 °F 46 °F (2005)
Min Temperature 28 °F 7 °F -27 °F (1975)
Degree Days  
Heating Degree Days 36    
Moisture  
Dew Point 28 °F    
Average Humidity 97    
Maximum Humidity 100    
Minimum Humidity 88    
Precipitation  
Precipitation 0.07 in - - ()
Sea Level Pressure  
Sea Level Pressure 29.80 in    
Wind  
Wind Speed 9 mph (NNE)    
Max Wind Speed 17 mph    
Max Gust Speed -    
Visibility 6 miles    
Events Fog , Rain , Snow    
Averages and records for this station are not official NWS values.
T = Trace of Precipitation, MM = Missing Value Source: NWS Daily Summary

Daily Weather History Graph

Daily Weather History Graph

Search for Another Location

Airport:

Trip Planner

Search our weather history database for the weather conditions in past years. The results will help you decide how hot, cold, wet, or windy it might be!

Date:

Astronomy

Dec. 08, 2011 Rise Set
Actual Time 9:58 AM AKST 3:55 PM AKST
Civil Twilight 9:00 AM AKST 4:53 PM AKST
Nautical Twilight 8:02 AM AKST 5:50 PM AKST
Astronomical Twilight 7:10 AM AKST 6:42 PM AKST
Moon 2:45 PM AKST (12/8) 8:13 AM AKST (12/8)
Length of Visible Light 7h 53m
Length of Day
5h 57m
Waxing Gibbous, 97% of the Moon is Illuminated
Dec 8
Waxing Gibbous
Dec 10
Full
Dec 17
Last Quarter
Dec 24
New
Dec 31
First Quarter

Hourly Weather History & Observations

Time (AKST) Temp. Windchill Dew Point Humidity Pressure Visibility Wind Dir Wind Speed Gust Speed Precip Events Conditions
12:53 AM 28.0 °F 15.7 °F 26.1 °F 92% 29.85 in 10.0 mi NNE 17.3 mph - 0.00 in   Overcast
1:53 AM 28.9 °F 17.3 °F 26.1 °F 89% 29.84 in 10.0 mi North 16.1 mph - 0.00 in   Overcast
3:53 AM 28.9 °F 17.7 °F 26.1 °F 89% 29.84 in 10.0 mi NNE 15.0 mph - N/A   Overcast
4:53 AM 30.0 °F 21.1 °F 27.0 °F 88% 29.84 in 10.0 mi NNE 10.4 mph - N/A   Overcast
5:46 AM 28.4 °F 19.7 °F 26.6 °F 93% 29.82 in 10.0 mi NNE 9.2 mph - N/A   Overcast
5:53 AM 28.9 °F 21.9 °F 28.0 °F 96% 29.83 in 10.0 mi NNE 6.9 mph - N/A   Overcast
6:04 AM 28.4 °F 20.4 °F 28.4 °F 100% 29.82 in 10.0 mi NNE 8.1 mph - N/A   Overcast
6:53 AM 28.9 °F 19.8 °F 28.0 °F 96% 29.82 in 10.0 mi NE 10.4 mph - N/A   Overcast
7:53 AM 28.9 °F 20.4 °F 28.0 °F 96% 29.83 in 3.0 mi NE 9.2 mph - N/A   Overcast
8:00 AM 28.4 °F 19.7 °F 28.4 °F 100% 29.81 in 3.0 mi NE 9.2 mph - 0.00 in Rain Light Freezing Rain
8:38 AM 28.4 °F 20.4 °F 28.4 °F 100% 29.81 in 10.0 mi NNE 8.1 mph - 0.00 in   Overcast
8:53 AM 28.9 °F 21.1 °F 27.0 °F 92% 29.82 in 10.0 mi NNE 8.1 mph - 0.00 in   Overcast
9:19 AM 28.4 °F 21.2 °F 28.4 °F 100% 29.81 in 5.0 mi NNE 6.9 mph - 0.00 in Rain Light Freezing Rain
9:41 AM 28.4 °F 20.4 °F 26.6 °F 93% 29.82 in 9.0 mi NNE 8.1 mph - 0.00 in   Overcast
9:53 AM 28.9 °F 21.1 °F 27.0 °F 92% 29.83 in 10.0 mi NNE 8.1 mph - 0.00 in   Overcast
10:53 AM 28.0 °F 19.3 °F 27.0 °F 96% 29.83 in 10.0 mi NNE 9.2 mph - N/A   Overcast
11:53 AM 28.0 °F 20.8 °F 27.0 °F 96% 29.83 in 10.0 mi NE 6.9 mph - N/A   Overcast
12:53 PM 28.9 °F 21.1 °F 27.0 °F 92% 29.82 in 10.0 mi NNE 8.1 mph - N/A   Overcast
1:15 PM 28.4 °F 21.2 °F 26.6 °F 93% 29.81 in 2.0 mi NNE 6.9 mph - 0.00 in Snow Light Snow
1:24 PM 28.4 °F 22.2 °F 28.4 °F 100% 29.81 in 0.8 mi NNE 5.8 mph - 0.01 in Snow Light Snow
1:29 PM 28.4 °F 22.2 °F 28.4 °F 100% 29.81 in 0.2 mi NNE 5.8 mph - 0.02 in Fog , Snow Heavy Snow
1:43 PM 28.4 °F 21.2 °F 28.4 °F 100% 29.80 in 1.0 mi NE 6.9 mph - 0.03 in Snow Light Snow
1:53 PM 28.9 °F 22.8 °F 28.0 °F 96% 29.81 in 2.0 mi NE 5.8 mph - 0.03 in Snow Light Snow
2:11 PM 28.4 °F 20.4 °F 28.4 °F 100% 29.79 in 4.0 mi NE 8.1 mph - 0.00 in   Overcast
2:36 PM 28.4 °F 22.2 °F 28.4 °F 100% 29.80 in 1.8 mi NE 5.8 mph - 0.00 in Snow Light Snow
2:51 PM 28.4 °F 22.2 °F 28.4 °F 100% 29.80 in 3.0 mi NE 5.8 mph - 0.01 in Snow Light Snow
2:53 PM 28.9 °F 22.8 °F 28.0 °F 96% 29.81 in 4.0 mi NE 5.8 mph - 0.01 in Snow Light Snow
3:53 PM 28.9 °F 21.1 °F 28.0 °F 96% 29.79 in 10.0 mi NNE 8.1 mph - 0.00 in   Overcast
4:39 PM 28.4 °F 22.2 °F 28.4 °F 100% 29.79 in 2.5 mi NE 5.8 mph - 0.00 in Snow Light Snow
4:48 PM 28.4 °F 22.2 °F 28.4 °F 100% 29.78 in 2.5 mi ENE 5.8 mph - 0.00 in Snow Light Snow
4:53 PM 28.9 °F 22.8 °F 28.0 °F 96% 29.79 in 2.5 mi ENE 5.8 mph - 0.00 in Snow Light Snow
5:15 PM 28.4 °F 24.6 °F 28.4 °F 100% 29.79 in 6.0 mi NE 3.5 mph - 0.01 in   Overcast
5:53 PM 28.0 °F 24.2 °F 28.0 °F 100% 29.79 in 10.0 mi NNE 3.5 mph - 0.01 in   Overcast
6:53 PM 28.9 °F 25.2 °F 28.0 °F 96% 29.79 in 10.0 mi NNE 3.5 mph - N/A   Overcast
6:57 PM 28.4 °F 24.6 °F 28.4 °F 100% 29.78 in 10.0 mi NNE 3.5 mph - N/A   Overcast
7:20 PM 28.4 °F 23.3 °F 28.4 °F 100% 29.77 in 10.0 mi North 4.6 mph - N/A   Overcast
7:29 PM 28.4 °F 22.2 °F 28.4 °F 100% 29.77 in 10.0 mi North 5.8 mph - N/A   Overcast
7:49 PM 28.4 °F 24.6 °F 28.4 °F 100% 29.78 in 2.0 mi North 3.5 mph - 0.00 in Snow Light Snow
7:53 PM 28.9 °F 25.2 °F 28.0 °F 96% 29.79 in 2.5 mi North 3.5 mph - 0.00 in Snow Light Snow
8:00 PM 28.4 °F 24.6 °F 28.4 °F 100% 29.78 in 4.0 mi North 3.5 mph - 0.00 in Snow Light Snow
8:17 PM 28.4 °F 24.6 °F 28.4 °F 100% 29.77 in 2.0 mi NNE 3.5 mph - 0.01 in Snow Light Snow
8:42 PM 28.4 °F - 28.4 °F 100% 29.77 in 1.8 mi Calm Calm - 0.01 in Snow Light Snow
8:53 PM 28.9 °F - 28.0 °F 96% 29.78 in 1.8 mi Calm Calm - 0.02 in Snow Light Snow
9:02 PM 28.4 °F 24.6 °F 28.4 °F 100% 29.78 in 2.5 mi North 3.5 mph - 0.00 in Snow Light Snow
9:09 PM 28.4 °F - 28.4 °F 100% 29.77 in 4.0 mi Calm Calm - 0.00 in Snow Light Snow
9:28 PM 28.4 °F - 28.4 °F 100% 29.78 in 7.0 mi Calm Calm - 0.00 in   Overcast
9:53 PM 28.9 °F 25.2 °F 28.0 °F 96% 29.78 in 2.0 mi North 3.5 mph - 0.00 in   Overcast
10:26 PM 28.4 °F 23.3 °F 28.4 °F 100% 29.78 in 4.0 mi North 4.6 mph - N/A   Overcast
10:34 PM 28.4 °F 23.3 °F 28.4 °F 100% 29.78 in 5.0 mi North 4.6 mph - N/A   Overcast
10:53 PM 28.9 °F 25.2 °F 28.0 °F 96% 29.79 in 3.0 mi NE 3.5 mph - N/A   Overcast
11:53 PM 28.9 °F - 28.0 °F 96% 29.80 in 9.0 mi Calm Calm - N/A   Overcast